Location: American Medical Response
(33.3472°N, 96.5511°W)
Time: 15:19:56
(UTC+00:00)

SJ 16-02 - Pass Details

Date: 09 July 2022
Orbit: 604 x 615 km, 75.0° (Epoch: 14 August)

Event Time Altitude Azimuth Distance (km) Brightness Sun altitude
Rises 04:41:01 0° 1° (N) 2,888 5.7 -28.4°
Reaches altitude 10° 04:43:48 10° 19° (NNE) 1,979 4.4 -28.7°
Enters shadow 04:45:38 17° 41° (NE) 1,553 3.6 -28.9°
